Location: 5810 Zion Rd, Cleves, OH 45002, USA
(39.1922°N, 84.7113°W)
Time: 06:42:55
(UTC-05:00)

Vanguard 3 - Pass Details

Date: 17 December 2019
Orbit: 507 x 3263 km, 33.4° (Epoch: 24 January)

Event Time Altitude Azimuth Distance (km) Brightness Sun altitude
Rises 11:54:42 0° 274° (W) 4,500 10.8 26.7°
Reaches altitude 10° 11:57:30 10° 266° (W) 3,844 10.6 26.8°
Maximum altitude 12:07:09 38° 203° (SSW) 3,115 11.5 27.1°
Drops below altitude 10° 12:22:04 10° 144° (SE) 5,880 12.6 27.4°
Sets 12:27:40 0° 137° (SE) 7,111 12.6 27.4°
